Regional Weather Roundup
Issued by NWS

Home | Current Version | Previous Version | Text Only | Print | Product List | Glossary Off
Versions: 1 2 3 4 5 6 7 8 9 10 11 12 13 14 15 16 17 18 19 20 21 22 23 24 25 26 27 28 29 30 31 32 33 34 35 36 37 38 39 40 41 42 43 44 45 46 47 48 49 50

000
ASUS43 KDTX 191610
RWRMI
MICHIGAN HOURLY REGIONAL WEATHER ROUNDUP
NATIONAL WEATHER SERVICE DETROIT/PONTIAC MI
1200 PM EDT THU APR 19 2018

NOTE: "FAIR" INDICATES FEW OR NO CLOUDS BELOW 12,000 FEET WITH NO
SIGNIFICANT WEATHER AND/OR OBSTRUCTION TO VISIBILITY.

MIZ047>049-052>055-059>063-066>070-074>076-081>083-191700-
SOUTHEAST LOWER MICHIGAN

CITY           SKY/WX    TMP DP  RH WIND       PRES   REMARKS
ADRIAN         FAIR      44  26  49 N12G22    30.15R
ALMA           FAIR      43  27  51 NW13G20   30.16S
ANN ARBOR      FAIR      45  25  45 NW15G22   30.13R
BAD AXE        PTSUNNY   37  24  60 N16G24    30.13R WCI  27
CARO           FAIR      40  27  59 NW13G18   30.14R WCI  33
DETROIT CITY   FAIR      39  23  52 NW12      30.11R WCI  32
DETROIT        FAIR      46  25  43 NW15      30.12R
FLINT          FAIR      41  27  57 NW12      30.14R
GROSSE ILE     FAIR      45  27  50 NW15G22   30.11R
HILLSDALE      FAIR      43  27  52 NW13G23   30.15R
HOWELL         FAIR      42  28  57 NW15G22   30.13R

CITY           SKY/WX    TMP DP  RH WIND       PRES   REMARKS
JACKSON        FAIR      43  23  45 NW14G23   30.15R
LAMBERTVILLE   FAIR      45  28  50 N16G24    30.14R
LANSING        FAIR      43  27  53 N13       30.17R
LAPEER         FAIR      40  24  52 NW12G17   30.12R WCI  33
MASON          FAIR      45  24  43 N14       30.15R
MONROE         FAIR      44  26  48 NW13G21   30.12R
PONTIAC        FAIR      42  22  44 N14G23    30.10R
PORT HOPE        N/A     35  26  69 N12       30.12R WCI  27
PORT HURON     CLOUDY    39  25  56 N13G20    30.11R WCI  32
TRI CITIES     FAIR      43  27  53 NW18      30.15R
MIDLAND        FAIR      42  26  53 NW17      30.15R
TROY           FAIR      44  22  42 NW13      30.13R
SAGINAW HB     FAIR      43  28  56 NW20      30.14R
$$
MIZ043>046-050>051-056>058-064>065-071>073-077>080-191700-
SOUTHWEST LOWER MICHIGAN

CITY           SKY/WX    TMP DP  RH WIND       PRES   REMARKS
BATTLE CREEK   FAIR      46  28  49 NW12      30.19R
BENTON HARBOR  FAIR      42  31  64 NW12G20   30.28R
BIG RAPIDS     FAIR      42  12  29 N14G22    30.19R
COLDWATER      FAIR      44  28  51 NW10G17   30.18R
FREMONT        FAIR      41  15  34 N13       30.22R
HOLLAND        FAIR      43  31  62 NW12      30.25R
GRAND RAPIDS   FAIR      43  29  57 NW14      30.20R
IONIA          FAIR      44  26  48 NW13G21   30.17S
KALAMAZOO      FAIR      46  27  47 NW18G25   30.21R
LUDINGTON      FAIR      37  28  70 N20G26    30.27R WCI  26
MARSHALL       FAIR      44  24  45 NW12G18   30.17R
MOUNT PLEASANT FAIR      44  23  43 NW13G20   30.16R
MUSKEGON       FAIR      43  24  47 N16       30.24R
SOUTH HAVEN    FAIR      41  31  68 NW15G22   30.26R
$$
MIZ016>042-191700-
NORTHERN LOWER MICHIGAN

CITY           SKY/WX    TMP DP  RH WIND       PRES   REMARKS
ALPENA         FAIR      34  21  59 NW20G28   30.16R WCI  23
BEAVER ISLAND  FAIR      38  24  56 NW13G18   30.25R WCI  30
BELLAIRE       FAIR      37  22  56 NW12G20   30.24R WCI  29
CADILLAC       FAIR      36  20  52 NW17G24   30.19R WCI  26
CHARLEVOIX     FAIR      35  26  70 N10       30.27R WCI  27
FRANKFORT      FAIR      38  28  67 N9        30.28R WCI  31
GAYLORD        FAIR      36  21  54 N8        30.16R WCI  30
GRAYLING       FAIR      36  22  55 NW15      30.16R WCI  27
HARBOR SPRINGS FAIR      37  21  52 NW12      30.21S WCI  29
HOUGHTON LAKE  FAIR      38  20  48 NW16      30.16R WCI  29
MANISTEE       FAIR      37  28  70 NW12G24   30.27R WCI  29
OSCODA         FAIR      38  21  50 NW14G20   30.13R WCI  29
PELLSTON       FAIR      36  23  59 NW16      30.21S WCI  26
ROGERS CITY    FAIR      33  20  59 NW15G24   30.18S WCI  23
TRAVERSE CITY  FAIR      37  27  67 N9G17     30.25R WCI  30
$$
MIZ007>008-015-191700-
EASTERN UPPER MICHIGAN

CITY           SKY/WX    TMP DP  RH WIND       PRES   REMARKS
KINROSS        FAIR      32  22  66 NW16G25   30.19S WCI  21
MACKINAC ISLAN FAIR      39  20  47 N10G18    30.20R WCI  32
NEWBERRY       FAIR      35  19  51 N14G22    30.24R WCI  26
S. S. MARIE    FAIR      36  22  56 NW15      30.19R WCI  27
MUNISING         N/A    N/A N/A N/A MISG      30.33R
$$
MIZ004>006-011>014-085-191700-
CENTRAL UPPER MICHIGAN

CITY           SKY/WX    TMP DP  RH WIND       PRES   REMARKS
MANISTIQUE     FAIR      38  22  52 NW15G23   30.26R WCI  29
ESCANABA       FAIR      44  17  33 N9G17     30.29R
MENOMINEE      FAIR      45  13  27 N13G18    30.31R
SAWYER-GWINN   SUNNY     37  14  38 N16       30.30R WCI  28
$$
MIZ001>003-009>011-084-191700-
WESTERN UPPER MICHIGAN

CITY           SKY/WX    TMP DP  RH WIND       PRES   REMARKS
IRON MOUNTAIN  FAIR      45  15  30 N13G23    30.29R
HOUGHTON       FAIR      37  19  48 NW12      30.35R WCI  29
COPPER HARBOR    N/A     35  26  69 N13       30.35R WCI  26
IRONWOOD       FAIR      42  16  34 N10       30.40R
$$

ABBREVIATIONS USED IN REMARKS
   TC - TEMPERATURE IN CELSIUS
  WCI - WIND CHILL INDEX
   HX - HEAT INDEX
  VSB - VISIBILITY





USA.gov is the U.S. government's official web portal to all federal, state and local government web resources and services.